{"data":{"norad_id":56485,"epoch":"2026-05-25T03:06:02.027232Z","epoch_age_seconds":78075,"freshness":"FRESH","line1":"1 56485U 23064AP  26145.12919013 -.00002637  00000+0 -21323-3 0  9990","line2":"2 56485  69.9989 291.5405 0002535 271.1570  88.9299 14.98343205167192","mean_motion":14.98343205,"eccentricity":0.0002535,"inclination_deg":69.9989,"raan_deg":291.5405,"arg_perigee_deg":271.157,"mean_anomaly_deg":88.9299,"bstar":-0.00021323,"rev_number":16719,"period_min":96.10615212821,"perigee_km":570.25319232494,"apogee_km":573.77691941727,"semimajor_km":6950.1520558711,"source":"CELESTRAK","updated_at":"2026-05-25T13:38:18.074248Z"}}